VSP116 SBGR-SBVT

Flight info

Callsign VSP116
Flight time N/A
Altitude 35000
Route UREMI UZ42 IMDAB DCT SEGLI DCT TODET
Aircraft B738/M-SDE2E3FGHIRWXY/LB1

Departure

Time N/A
Airport São Paulo/Guarulhos–Governor André Franco Montoro International Airport (SBGR)

Arrival

Time 2026-04-26 04:14
Airport Eurico de Aguiar Salles International Airport (SBVT)
Time Latitude Longitude Altitude Speed Heading
2026-04-26 03:42 -22.34981 -42.53323 35000 ft 459 kts 66°
2026-04-26 03:42 -22.33674 -42.50168 35000 ft 459 kts 66°
2026-04-26 03:42 -22.30819 -42.44005 35000 ft 459 kts 58°
2026-04-26 03:43 -22.28067 -42.39136 34999 ft 459 kts 58°
2026-04-26 03:43 -22.23806 -42.32548 35000 ft 459 kts 53°
2026-04-26 03:44 -22.19978 -42.27061 34999 ft 459 kts 53°
2026-04-26 03:44 -22.16130 -42.21572 34999 ft 459 kts 53°
2026-04-26 03:45 -22.12289 -42.16107 34999 ft 459 kts 53°
2026-04-26 03:45 -22.08441 -42.10642 34999 ft 459 kts 53°
2026-04-26 03:46 -22.04586 -42.05177 34999 ft 459 kts 53°
2026-04-26 03:47 -21.98783 -41.96961 35000 ft 459 kts 53°
2026-04-26 03:47 -21.94939 -41.91526 35000 ft 459 kts 53°
2026-04-26 03:48 -21.91066 -41.86057 34999 ft 459 kts 52°
2026-04-26 03:48 -21.87199 -41.80601 34999 ft 459 kts 52°
2026-04-26 03:49 -21.83328 -41.75145 34999 ft 459 kts 52°
2026-04-26 03:49 -21.79460 -41.69699 34999 ft 459 kts 52°
2026-04-26 03:50 -21.75596 -41.64265 34999 ft 459 kts 52°
2026-04-26 03:50 -21.71732 -41.58836 34999 ft 459 kts 52°
2026-04-26 03:51 -21.67844 -41.53378 34999 ft 459 kts 52°
2026-04-26 03:51 -21.63998 -41.47986 35000 ft 459 kts 52°
2026-04-26 03:52 -21.60098 -41.42522 34924 ft 461 kts 52°
2026-04-26 03:52 -21.58164 -41.39814 34502 ft 458 kts 52°
2026-04-26 03:52 -21.56241 -41.37124 33699 ft 458 kts 52°
2026-04-26 03:52 -21.54310 -41.34423 32865 ft 458 kts 52°
2026-04-26 03:53 -21.52313 -41.31787 31916 ft 457 kts 48°
2026-04-26 03:53 -21.50135 -41.29330 30915 ft 447 kts 45°
2026-04-26 03:53 -21.47984 -41.27005 30384 ft 439 kts 45°
2026-04-26 03:53 -21.45814 -41.24773 29821 ft 434 kts 41°
2026-04-26 03:54 -21.43805 -41.22908 29266 ft 431 kts 40°
2026-04-26 03:54 -21.41366 -41.20715 28289 ft 435 kts 40°
2026-04-26 03:54 -21.39052 -41.18653 27460 ft 435 kts 39°
2026-04-26 03:54 -21.36748 -41.16608 26814 ft 430 kts 39°
2026-04-26 03:55 -21.34467 -41.14585 26205 ft 425 kts 39°
2026-04-26 03:55 -21.32201 -41.12580 25602 ft 419 kts 39°
2026-04-26 03:55 -21.29975 -41.10614 25007 ft 414 kts 39°
2026-04-26 03:55 -21.27774 -41.08675 24418 ft 410 kts 39°
2026-04-26 03:56 -21.25584 -41.06747 23831 ft 405 kts 39°
2026-04-26 03:56 -21.23418 -41.04842 23246 ft 401 kts 39°
2026-04-26 03:56 -21.21293 -41.02973 22669 ft 396 kts 39°
2026-04-26 03:56 -21.19194 -41.01127 22097 ft 392 kts 39°
2026-04-26 03:57 -21.17078 -40.99268 21522 ft 388 kts 39°
2026-04-26 03:57 -21.15020 -40.97459 20957 ft 384 kts 39°
2026-04-26 03:57 -21.12979 -40.95667 20393 ft 381 kts 39°
2026-04-26 03:57 -21.10938 -40.93874 19830 ft 377 kts 39°
2026-04-26 03:58 -21.08931 -40.92113 19271 ft 374 kts 39°
2026-04-26 03:58 -21.06947 -40.90372 18717 ft 370 kts 39°
2026-04-26 03:58 -21.04949 -40.88623 18160 ft 367 kts 39°
2026-04-26 03:58 -21.03003 -40.86921 17614 ft 364 kts 39°
2026-04-26 03:59 -21.01042 -40.85206 17063 ft 361 kts 39°
2026-04-26 03:59 -20.99119 -40.83522 16518 ft 358 kts 39°
2026-04-26 03:59 -20.97226 -40.81864 15984 ft 355 kts 39°
2026-04-26 03:59 -20.95307 -40.80186 15438 ft 353 kts 39°
2026-04-26 04:00 -20.93421 -40.78534 14901 ft 351 kts 39°
2026-04-26 04:00 -20.91562 -40.76908 14368 ft 349 kts 39°
2026-04-26 04:00 -20.89684 -40.75265 13828 ft 348 kts 39°
2026-04-26 04:00 -20.87824 -40.73639 13400 ft 337 kts 39°
2026-04-26 04:01 -20.86074 -40.72110 13252 ft 313 kts 39°
2026-04-26 04:01 -20.84460 -40.70701 13118 ft 296 kts 39°
2026-04-26 04:01 -20.82881 -40.69322 12920 ft 289 kts 39°
2026-04-26 04:01 -20.81356 -40.67950 12704 ft 284 kts 44°
2026-04-26 04:02 -20.80027 -40.66382 12461 ft 293 kts 51°
2026-04-26 04:02 -20.78790 -40.64621 12050 ft 300 kts 54°
2026-04-26 04:02 -20.77584 -40.62810 11664 ft 299 kts 54°
2026-04-26 04:02 -20.76383 -40.61003 11294 ft 298 kts 54°
2026-04-26 04:03 -20.75184 -40.59211 10927 ft 297 kts 54°
2026-04-26 04:03 -20.74045 -40.57518 10578 ft 295 kts 54°
2026-04-26 04:03 -20.72852 -40.55749 10207 ft 293 kts 54°
2026-04-26 04:03 -20.71695 -40.54035 9962 ft 277 kts 54°
2026-04-26 04:04 -20.70610 -40.52428 9855 ft 263 kts 54°
2026-04-26 04:04 -20.69537 -40.50841 9500 ft 265 kts 54°
2026-04-26 04:04 -20.68444 -40.49224 9155 ft 266 kts 54°
2026-04-26 04:04 -20.67367 -40.47630 8830 ft 267 kts 54°
2026-04-26 04:05 -20.66284 -40.46029 8502 ft 267 kts 54°
2026-04-26 04:05 -20.65190 -40.44412 8172 ft 268 kts 54°
2026-04-26 04:05 -20.64107 -40.42810 7845 ft 268 kts 54°
2026-04-26 04:05 -20.63010 -40.41190 7512 ft 268 kts 54°
2026-04-26 04:06 -20.61922 -40.39583 7182 ft 268 kts 54°
2026-04-26 04:06 -20.60829 -40.37970 6851 ft 268 kts 54°
2026-04-26 04:06 -20.59749 -40.36374 6524 ft 268 kts 54°
2026-04-26 04:06 -20.58665 -40.34775 6196 ft 267 kts 54°
2026-04-26 04:07 -20.57566 -40.33154 5862 ft 267 kts 54°
2026-04-26 04:07 -20.56490 -40.31566 5521 ft 262 kts 54°
2026-04-26 04:07 -20.55446 -40.30027 5207 ft 253 kts 54°
2026-04-26 04:07 -20.54425 -40.28523 4900 ft 245 kts 54°
2026-04-26 04:08 -20.53361 -40.27147 4580 ft 239 kts 44°
2026-04-26 04:08 -20.52099 -40.26052 4253 ft 234 kts 32°
2026-04-26 04:08 -20.50676 -40.25276 3946 ft 228 kts 20°
2026-04-26 04:08 -20.49185 -40.24845 3659 ft 218 kts
2026-04-26 04:09 -20.47713 -40.24748 3348 ft 206 kts 358°
2026-04-26 04:09 -20.46340 -40.24888 3051 ft 194 kts 352°
2026-04-26 04:09 -20.45049 -40.25097 2823 ft 182 kts 351°
2026-04-26 04:09 -20.43835 -40.25293 2627 ft 173 kts 352°
2026-04-26 04:10 -20.42682 -40.25469 2403 ft 162 kts 352°
2026-04-26 04:10 -20.41579 -40.25632 2317 ft 156 kts 352°
2026-04-26 04:10 -20.40525 -40.25787 2363 ft 154 kts 352°
2026-04-26 04:10 -20.39451 -40.25946 2362 ft 156 kts 352°
2026-04-26 04:11 -20.38382 -40.26104 2370 ft 155 kts 352°
2026-04-26 04:11 -20.37306 -40.26264 2256 ft 157 kts 352°
2026-04-26 04:11 -20.36241 -40.26421 2047 ft 155 kts 352°
2026-04-26 04:11 -20.35182 -40.26578 1886 ft 152 kts 352°
2026-04-26 04:12 -20.34119 -40.26735 1639 ft 155 kts 352°
2026-04-26 04:12 -20.33075 -40.26889 1391 ft 152 kts 352°
2026-04-26 04:12 -20.32022 -40.27045 1191 ft 152 kts 352°
2026-04-26 04:12 -20.30983 -40.27199 980 ft 152 kts 352°
2026-04-26 04:13 -20.29934 -40.27354 758 ft 153 kts 352°
2026-04-26 04:13 -20.28886 -40.27511 535 ft 150 kts 352°
2026-04-26 04:13 -20.27893 -40.27657 412 ft 139 kts 352°
2026-04-26 04:13 -20.26928 -40.27796 167 ft 139 kts 352°
2026-04-26 04:14 -20.25985 -40.27934 10 ft 126 kts 353°
2026-04-26 04:14 -20.25448 -40.28022 16 ft 36 kts 352°
2026-04-26 04:14 -20.25239 -40.28054 16 ft 21 kts 351°
2026-04-26 04:14 -20.25138 -40.28080 15 ft 14 kts 339°
2026-04-26 04:15 -20.25061 -40.28118 13 ft 8 kts 330°
2026-04-26 04:15 -20.25028 -40.28162 12 ft 5 kts 276°
2026-04-26 04:15 -20.25039 -40.28191 12 ft 3 kts 224°
2026-04-26 04:15 -20.25055 -40.28201 12 ft 2 kts 207°
2026-04-26 04:16 -20.25068 -40.28208 13 ft 1 kts 207°
2026-04-26 04:16 -20.25079 -40.28214 13 ft 2 kts 207°
2026-04-26 04:16 -20.25098 -40.28225 13 ft 4 kts 210°
2026-04-26 04:16 -20.25126 -40.28243 14 ft 5 kts 210°
2026-04-26 04:17 -20.25162 -40.28265 14 ft 6 kts 210°
2026-04-26 04:17 -20.25207 -40.28295 14 ft 8 kts 213°
2026-04-26 04:17 -20.25260 -40.28331 14 ft 9 kts 212°
2026-04-26 04:17 -20.25317 -40.28369 14 ft 9 kts 212°
2026-04-26 04:18 -20.25375 -40.28407 14 ft 10 kts 212°
2026-04-26 04:18 -20.25433 -40.28445 14 ft 9 kts 211°
2026-04-26 04:18 -20.25498 -40.28487 14 ft 11 kts 212°
2026-04-26 04:18 -20.25564 -40.28532 13 ft 11 kts 212°
2026-04-26 04:19 -20.25640 -40.28582 11 ft 13 kts 211°
2026-04-26 04:19 -20.25715 -40.28631 10 ft 12 kts 211°
2026-04-26 04:19 -20.25763 -40.28683 9 ft 6 kts 258°
2026-04-26 04:19 -20.25754 -40.28719 9 ft 2 kts 312°
2026-04-26 04:20 -20.25749 -40.28724 9 ft 1 kts 317°
2026-04-26 04:20 -20.25738 -40.28735 9 ft 3 kts 318°
2026-04-26 04:20 -20.25723 -40.28751 9 ft 2 kts 310°
2026-04-26 04:20 -20.25714 -40.28767 10 ft 2 kts 295°
2026-04-26 04:21 -20.25707 -40.28782 10 ft 2 kts 294°
2026-04-26 04:21 -20.25701 -40.28796 11 ft 2 kts 296°
2026-04-26 04:21 -20.25695 -40.28808 11 ft 1 kts 300°
2026-04-26 04:21 -20.25689 -40.28819 11 ft 1 kts 301°
2026-04-26 04:22 -20.25684 -40.28828 12 ft 0 kts 301°
2026-04-26 04:22 -20.25681 -40.28832 12 ft 0 kts 301°
2026-04-26 04:22 -20.25680 -40.28835 12 ft 0 kts 301°
2026-04-26 04:22 -20.25679 -40.28835 12 ft 0 kts 301°
2026-04-26 04:23 -20.25679 -40.28836 12 ft 0 kts 301°
2026-04-26 04:23 -20.25678 -40.28837 12 ft 0 kts 301°
2026-04-26 04:23 -20.25678 -40.28838 12 ft 0 kts 301°
2026-04-26 04:24 -20.25678 -40.28839 12 ft 0 kts 301°